Location: *
(46.9141°N, 15.4309°E)
Time: 00:56:12
(UTC+00:00)

Daily predictions for brighter satellites

Satellite Brightness Start Highest point End
(mag) Time Altitude Azimuth Time Altitude Azimuth Time Altitude Azimuth
Cosmos 2344 4.3 02:21:09 47° ENE 02:21:09 47° ENE 02:27:04 10° NE
ATLAS 3B R/B 4.1 02:22:24 32° NE 02:22:24 32° NE 02:27:15 10° E
CENTAUR R/B 3.5 02:39:30 57° NE 02:39:41 58° NE 02:48:12 10° ESE
Lacrosse 5 4.5 02:42:05 15° ESE 02:42:05 15° ESE 02:44:11 10° E
USA 215 4.2 02:41:42 10° E 02:47:03 41° NNE 02:47:03 41° NNE
SL-16 R/B 4.4 02:53:12 11° SE 02:57:07 21° E 03:01:14 10° NE
Cosmos 1980 Rocket 3.5 03:07:20 35° NE 03:07:20 35° NE 03:10:31 10° NNE
Cosmos 1697 Rocket 4.4 03:13:32 23° NNE 03:13:32 23° NNE 03:15:34 10° NNE
ATLAS 2AS CENTAUR R/B 3.3 03:13:15 50° S 03:15:17 64° ESE 03:23:10 10° NE
COSMOS 2455 3.2 03:27:17 58° NNE 03:27:17 58° NNE 03:32:06 10° NNE
CZ-2C R/B 4.1 03:30:31 10° NNE 03:32:36 25° NNE 03:32:36 25° NNE
Cosmos 1680 Rocket 4.3 03:34:01 37° SSE 03:35:42 51° ESE 03:40:51 10° NNE
ALOS 4.0 03:35:33 10° NNE 03:39:43 31° E 03:43:53 10° SSE
Cosmos 2341 Rocket 4.0 03:37:27 10° N 03:43:45 82° E 03:49:58 10° S
BREEZE-M DEB (TANK) 4.3 03:45:45 56° E 03:45:45 56° E 03:51:30 10° ESE
Cosmos 2112 Rocket 4.4 03:50:58 22° S 03:54:26 63° ESE 03:59:44 10° NNE
Okean O Rocket 4.0 03:51:56 10° NE 03:55:30 23° E 03:59:02 10° SSE
Cosmos 2322 Rocket 2.9 03:52:11 10° S 03:57:40 52° ESE 04:03:12 10° NE
Cosmos 2263 Rocket 2.0 03:57:52 73° W 03:58:04 74° WSW 04:03:43 10° SSE
Cosmos 2058 Rocket 4.0 03:54:22 10° SSE 03:58:32 46° E 04:02:43 10° NNE
Cosmos 1703 4.1 04:00:46 45° SE 04:00:46 45° SE 04:03:38 10° SSE
Cosmos 1726 Rocket 3.5 04:03:21 72° SSE 04:03:45 81° E 04:08:11 10° N
STARLINK 1044 3.9 04:06:52 58° E 04:06:52 58° E 04:10:07 10° ENE
Cosmos 2218 Rocket 4.1 04:00:31 10° N 04:06:56 76° E 04:13:15 10° SSE
Cosmos 2228 3.5 04:08:47 50° N 04:08:47 50° N 04:12:06 10° N
Cosmos 1624 Rocket 4.1 04:05:47 28° NNW 04:08:34 72° ENE 04:13:44 10° SSE
Cosmos 1844 Rocket 4.0 04:04:07 11° NNW 04:08:59 36° NE 04:14:09 10° ESE
COSMO-SKYMED 1 2.4 04:06:57 10° SSE 04:11:17 88° WSW 04:11:56 64° NNW
ATLAS 3B R/B 2.5 04:09:41 39° NW 04:12:25 76° SW 04:19:19 10° SSE
STARLINK 1031 3.6 04:13:07 67° E 04:13:07 67° E 04:16:30 10° ENE
Timation 1 Rocket 4.4 04:13:22 51° W 04:14:01 53° WSW 04:19:50 10° S
STARLINK 1024 3.4 04:16:25 75° E 04:16:25 75° E 04:19:56 10° ENE
NOSS 3-2 (C) 4.3 04:15:02 39° W 04:16:55 45° WSW 04:24:48 10° S
Cosmos 1959 Rocket 4.4 04:10:48 10° N 04:16:57 87° E 04:23:09 10° S
ADEOS Rocket 4.1 04:11:55 10° SE 04:17:01 39° ENE 04:22:26 10° N
STARLINK-41 4.4 04:17:49 37° NNE 04:17:49 37° NNE 04:20:43 10° NE
EXPRESS MD2 4.2 04:18:19 30° NE 04:18:19 30° NE 04:19:45 10° ENE
STARLINK 4.2 04:21:40 38° N 04:21:40 38° N 04:24:42 10° NE
STARLINK 1029 3.9 04:22:02 43° NE 04:22:02 43° NE 04:24:17 10° ENE
STARLINK-34 4.2 04:22:14 41° N 04:22:14 41° N 04:25:44 10° ENE
STARLINK 1032 3.2 04:23:05 89° SW 04:23:06 90° ESE 04:26:53 10° ENE
Lacrosse 5 1.9 04:21:20 35° SW 04:23:29 77° SE 04:28:35 10° NE
Lacrosse 5 rocket 3.0 04:22:34 24° NNW 04:23:51 28° NNE 04:27:42 10° ENE
Cosmos 2056 Rocket 3.5 04:20:56 22° NNW 04:24:36 87° WSW 04:30:01 10° SSE
STARLINK 1011 3.2 04:26:25 81° W 04:26:35 86° NNW 04:30:22 10° ENE
STARLINK 1036 3.2 04:29:47 74° W 04:30:04 82° NNW 04:33:52 10° ENE
USA 215 3.3 04:23:48 10° ESE 04:30:21 81° NNE 04:34:24 25° NW
CENTAUR R/B 3.4 04:26:44 30° WNW 04:30:32 49° WSW 04:38:47 10° S
Cosmos 923 Rocket 4.2 04:29:48 42° W 04:30:41 46° WNW 04:35:50 10° NNE
FENGYUN 3A 3.6 04:25:14 10° NNE 04:30:41 88° ESE 04:36:07 10° SSW
NOSS 3-4 (A) 3.4 04:28:28 32° WSW 04:31:21 65° NW 04:37:46 10° NE
NOSS 3-4 (C) 3.4 04:28:32 32° WSW 04:31:27 66° NW 04:37:52 10° NE
STARLINK-24 4.2 04:32:05 39° NNW 04:32:19 40° NNW 04:36:09 10° ENE
SJ-12 3.7 04:28:52 10° N 04:32:56 74° WNW 04:37:00 10° SSW
FALCON 9 DEB 3.3 04:33:44 59° SSW 04:33:44 59° SSW 04:37:08 10° SE
Cosmos 2344 4.1 04:31:10 31° WNW 04:34:04 41° NNW 04:42:16 10° NE
STARLINK-81 4.1 04:34:11 39° NNW 04:34:32 40° NNW 04:38:22 10° ENE
Cosmos 2366 rocket 3.9 04:28:14 10° NNW 04:34:36 74° W 04:40:55 10° S
STARLINK-54 4.2 04:35:58 38° NNW 04:36:23 39° NNW 04:40:12 10° ENE
STARLINK 1047 3.2 04:36:31 60° W 04:37:05 75° NNW 04:40:53 10° ENE
USA 116 3.7 04:33:10 10° SSE 04:37:36 81° WSW 04:40:37 17° NNW
STARLINK-77 4.2 04:37:22 38° NNW 04:37:52 39° NNW 04:41:41 10° ENE
STARLINK-26 4.4 04:38:11 28° N 04:38:23 29° N 04:41:28 10° ENE
STARLINK 1037 3.3 04:38:35 56° W 04:39:15 73° NNW 04:43:03 10° ENE
STARLINK-25 4.2 04:38:56 37° NW 04:39:29 39° NNW 04:43:18 10° ENE
Gbstr 26 Del rocket 4.3 04:35:43 26° WSW 04:40:10 85° NNW 04:48:16 10° ENE
CZ-4B R/B 4.4 04:36:34 10° N 04:38:32 22° NNW 04:38:32 22° NNW
STARLINK-61 4.4 04:40:00 32° NNW 04:40:37 34° N 04:44:16 10° ENE
SL-16 R/B 2.1 04:35:14 11° SW 04:40:40 67° WNW 04:46:21 10° NNE
PSLV R/B 3.7 04:37:16 10° N 04:40:57 51° WNW 04:41:30 46° WSW
STARLINK-71 4.3 04:40:46 35° NW 04:41:25 38° N 04:45:13 10° ENE
Cosmos 2360 Rocket 2.7 04:36:53 10° S 04:42:27 61° ESE 04:48:02 10° NNE
STARLINK 1059 3.3 04:42:00 50° W 04:42:48 69° NNW 04:46:36 10° ENE
STARLINK-79 4.2 04:42:07 35° NW 04:42:49 38° NNW 04:46:37 10° ENE
STARLINK-78 4.3 04:43:44 34° NW 04:44:31 38° N 04:48:19 10° ENE
STARLINK-57 4.3 04:45:26 33° NW 04:46:18 37° N 04:50:05 10° ENE
STARLINK 1057 3.3 04:45:25 45° W 04:46:22 66° NNW 04:50:09 10° ENE
Cosmos 158 Rocket 3.8 04:42:01 10° SSW 04:46:51 63° WNW 04:51:48 10° NNE
STARLINK-49 4.3 04:46:55 32° NW 04:47:51 37° N 04:51:38 10° ENE
Cosmos 1300 3.3 04:44:14 10° S 04:47:59 57° E 04:51:45 10° NNE
STARLINK-80 4.4 04:47:33 28° NNW 04:48:48 35° N 04:52:20 10° E
Cosmos 1980 Rocket 3.3 04:49:07 23° NW 04:49:27 23° NW 04:53:56 10° N
STARLINK-27 4.3 04:48:29 32° NW 04:49:30 37° N 04:53:16 10° ENE
STARLINK 1052 3.4 04:48:51 41° W 04:49:57 63° NNW 04:53:44 10° ENE
STARLINK-42 4.3 04:49:24 30° NNW 04:50:08 33° N 04:53:31 10° ENE
BREEZE-M DEB (TANK) 3.7 04:43:48 21° W 04:50:37 69° NNW 04:54:53 10° ENE
STARLINK-74 4.3 04:50:04 31° NW 04:51:09 37° N 04:54:56 10° ENE
H-2A R/B 4.2 04:48:44 10° NNE 04:52:27 40° E 04:56:05 10° SSE
STARLINK-39 4.4 04:51:40 30° NW 04:52:50 37° N 04:56:36 10° ENE
CZ-4B R/B 3.3 04:47:44 10° NNE 04:53:18 78° ESE 04:58:42 10° SSW
STARLINK 1068 3.4 04:52:17 37° W 04:53:32 61° NNW 04:57:18 10° ENE
STARLINK 4.4 04:53:16 29° NW 04:54:30 36° N 04:58:16 10° ENE
Helios 1A Rocket 3.3 04:50:44 10° NNE 04:54:52 66° ESE 04:58:59 10° S
Cosmos 1697 Rocket 4.4 04:55:16 14° NW 04:55:16 14° NW 04:58:13 10° N
Cosmos 1844 4.1 04:50:47 10° NNW 04:56:19 62° ENE 05:01:49 10° SE
STARLINK 1053 4.5 04:52:20 10° SW 04:56:20 49° SE 05:00:20 10° ENE
STARLINK-69 4.4 04:55:04 28° NW 04:56:23 35° N 05:00:08 10° ENE
STARLINK-21 4.4 04:56:28 27° NW 04:57:52 36° N 05:01:37 10° ENE
SKYMED 2 4.4 04:55:45 10° SSW 04:59:31 29° W 05:00:32 26° WNW
STARLINK-45 4.5 04:58:18 26° NW 04:59:47 35° N 05:03:31 10° ENE
STARLINK-29 3.7 04:59:02 32° W 05:00:06 43° SW 05:03:27 10° SE
STARLINK 1060 3.5 04:59:10 31° W 05:00:43 56° NNW 05:04:28 10° ENE
STARLINK 1061 4.3 04:57:16 10° SW 05:01:18 53° SE 05:05:20 10° ENE
STARLINK-70 4.4 04:59:47 25° NW 05:01:20 35° N 05:05:04 10° ENE
STARLINK-52 3.6 05:01:19 31° W 05:02:31 45° SW 05:05:53 10° SE
STARLINK-76 4.4 05:01:14 25° NW 05:02:52 35° N 05:06:36 10° ENE
STARLINK 1030 3.6 05:02:36 28° W 05:04:19 54° NNW 05:08:04 10° ENE
STARLINK 4.4 05:02:50 24° NW 05:04:31 35° N 05:08:15 10° ENE
Cosmos 1812 Rocket 3.9 05:00:48 10° S 05:05:09 69° E 05:09:34 10° NNE
Cosmos 2237 4.3 04:59:48 10° SSW 05:05:31 86° ESE 05:11:16 10° NNE
STARLINK-32 4.5 05:04:26 23° NW 05:06:12 35° N 05:09:56 10° ENE
STARLINK 1067 4.2 05:02:11 10° SW 05:06:15 57° SE 05:10:19 10° ENE
Cosmos 1908 4.1 05:03:25 11° SW 05:06:42 28° WNW 05:10:08 10° NNW
ATLAS 2AS CENTAUR R/B 3.4 05:00:45 17° WSW 05:06:44 45° NW 05:14:17 10° NE
Cosmos 1452 Rocket 3.6 05:01:26 10° NNW 05:06:44 82° ENE 05:11:59 10° SSE
STARLINK-40 4.5 05:06:01 23° NW 05:07:51 35° N 05:11:35 10° ENE
STARLINK 1020 3.6 05:06:05 26° W 05:07:57 52° NNW 05:11:42 10° ENE
STARLINK 1028 3.5 05:07:22 30° NW 05:08:04 35° NNW 05:10:49 10° NE
STARLINK 1021 3.5 05:07:35 30° NW 05:08:18 35° NNW 05:11:02 10° NE
STARLINK-64 4.4 05:06:51 22° NW 05:08:27 32° N 05:11:52 10° ENE
STARLINK 1019 3.5 05:07:50 30° NW 05:08:32 34° NNW 05:11:15 10° NE
STARLINK 1012 3.5 05:08:00 29° NW 05:08:43 35° NNW 05:11:28 10° NE
STARLINK 1010 3.5 05:08:14 29° NW 05:08:58 35° NNW 05:11:42 10° NE
STARLINK 1026 3.5 05:08:27 29° NW 05:09:11 34° NNW 05:11:56 10° NE
STARLINK 1013 3.5 05:08:40 29° NW 05:09:26 34° NNW 05:12:10 10° NE
STARLINK-44 4.5 05:07:35 22° NW 05:09:30 34° N 05:13:14 10° ENE
STARLINK 1009 3.5 05:08:53 29° NW 05:09:39 34° NNW 05:12:23 10° NE
STARLINK 1015 3.5 05:09:05 29° NW 05:09:52 34° NNW 05:12:35 10° NE
STARLINK 1016 3.6 05:09:19 28° NW 05:10:06 34° NNW 05:12:49 10° NE
STARLINK 1008 3.6 05:09:31 28° NW 05:10:18 34° NNW 05:13:02 10° NE
STARLINK 1025 3.6 05:09:57 28° NW 05:10:46 34° NNW 05:13:29 10° NE
STARLINK 1017 3.6 05:10:09 28° NW 05:10:58 34° NNW 05:13:42 10° NE
STARLINK 1058 4.1 05:07:05 10° SW 05:11:09 62° SE 05:15:16 10° ENE
STARLINK 1023 3.6 05:10:21 28° NW 05:11:11 34° NNW 05:13:55 10° NE
STARLINK-37 4.5 05:09:19 21° NW 05:11:20 34° N 05:15:03 10° ENE
STARLINK 1007 3.6 05:10:36 28° NW 05:11:26 34° NNW 05:14:10 10° NE
STARLINK 1034 3.7 05:09:34 24° W 05:11:35 50° NNW 05:15:19 10° ENE
STARLINK 1048 3.6 05:10:49 27° NW 05:11:40 34° NNW 05:14:24 10° NE
STARLINK 1049 3.6 05:11:02 27° NW 05:11:54 34° NNW 05:14:37 10° NE
STARLINK 1051 3.6 05:11:15 27° NW 05:12:07 34° NNW 05:14:50 10° NE
STARLINK-36 4.5 05:10:47 21° WNW 05:12:51 34° N 05:16:34 10° ENE
COSMOS 2455 4.1 05:10:28 18° WNW 05:12:51 23° NW 05:17:34 10° NNE
CZ-2C R/B 4.3 05:10:32 10° NNW 05:12:00 13° NW 05:12:00 13° NW
COSMOS 2428 4.4 05:10:20 10° S 05:15:33 38° ESE 05:20:48 10° NE
In-Cosmos 22 Rocket 4.3 05:10:37 10° N 05:15:59 76° ENE 05:21:17 10° SSE
STARLINK 1043 4.0 05:12:02 10° SW 05:16:08 66° SE 05:20:15 10° ENE
ALOS 2.9 05:12:58 10° N 05:17:07 32° WNW 05:21:14 10° SW
Cosmos 1680 Rocket 4.5 05:14:27 14° WSW 05:18:06 27° NW 05:22:36 10° N
STARLINK-33 4.4 05:16:59 18° NW 05:18:52 29° N 05:22:02 10° ENE
STARLINK 1033 3.8 05:16:36 20° W 05:18:56 47° NNW 05:22:38 10° ENE
STARLINK-66 4.4 05:18:34 18° NW 05:20:32 29° N 05:23:42 10° ENE
STARLINK 1065 3.9 05:16:58 10° SW 05:21:06 71° SSE 05:25:14 10° ENE
PAYLOAD B 4.4 05:16:11 10° N 05:21:35 49° WNW 05:26:57 10° SW
STARLINK-55 4.4 05:20:12 17° NW 05:22:15 29° N 05:25:25 10° ENE
RESURS DK-1 2.8 05:18:36 10° SW 05:22:32 41° NW 05:26:29 10° NNE
Cosmos 1892 3.4 05:19:16 10° N 05:23:04 57° E 05:26:47 10° SSE
Cosmos 371 Rocket 4.0 05:18:40 10° NNW 05:23:27 54° ENE 05:28:10 10° SE
STARLINK-48 4.3 05:20:58 16° NW 05:23:45 39° NNE 05:27:26 10° E
STARLINK-28 4.4 05:21:55 16° NW 05:24:04 29° N 05:27:14 10° ENE
STARLINK 1035 3.8 05:22:14 18° W 05:24:29 40° NNW 05:27:53 10° NE
STARLINK 1063 3.8 05:21:56 10° SW 05:26:04 76° SSE 05:30:12 10° ENE
OE (NEXTSAT) 4.4 05:23:27 15° W 05:26:13 76° S 05:29:44 10° E
STARLINK 1027 3.9 05:26:24 17° WNW 05:28:49 38° NNW 05:32:12 10° NE
NOAA 6 4.3 05:24:36 10° N 05:29:35 48° WNW 05:34:32 10° SW
STARLINK-43 3.4 05:26:45 15° WNW 05:29:44 73° NNE 05:33:26 10° ESE
STARLINK 1064 3.7 05:26:53 10° SW 05:31:01 81° SSE 05:35:11 10° ENE
Okean O Rocket 2.0 05:27:50 10° N 05:32:00 40° WNW 05:36:07 10° SW
Cosmos 1420 Rocket 4.3 05:27:06 10° NNW 05:32:12 48° WSW 05:37:16 10° S
Cosmos 2278 Rocket 3.4 05:28:28 10° NNW 05:33:48 39° NE 05:39:05 10° ESE
STARLINK 1014 3.9 05:32:06 15° WNW 05:34:05 30° NNW 05:36:51 10° NE
Okean 3 Rocket 4.3 05:31:02 10° N 05:35:33 59° ENE 05:40:02 10° SSE
STARLINK 1041 3.6 05:31:52 10° WSW 05:36:01 87° SSE 05:40:11 10° ENE
Cosmos 2058 Rocket 4.4 05:33:40 10° WSW 05:36:47 19° WNW 05:39:56 10° NNW
AQUARIUS 4.2 05:32:32 10° NNE 05:37:04 88° W 05:41:34 10° SSW
STARLINK 1040 4.0 05:36:04 14° WNW 05:37:55 26° N 05:40:24 10° NE
Cosmos 1825 4.0 05:35:36 10° N 05:39:03 33° ENE 05:42:29 10° SE
Cosmos 1076 Rocket 3.7 05:36:05 10° NNW 05:40:20 51° W 05:44:34 10° S
CZ-3 R/B 4.2 05:31:37 10° WSW 05:40:36 17° SW 05:45:26 10° S
Cosmos 2263 Rocket 3.9 05:39:38 10° W 05:40:58 11° W 05:42:31 10° WSW
STARLINK 1038 3.6 05:36:50 10° WSW 05:40:58 88° NW 05:45:09 10° ENE
Okean-O 3.6 05:37:06 10° NNE 05:41:28 53° E 05:45:48 10° S
Cosmos 1821 Rocket 4.1 05:35:36 10° NNW 05:41:37 56° W 05:47:31 10° SSW
Cosmos 2322 Rocket 3.0 05:37:01 10° WSW 05:42:00 30° NW 05:47:02 10° NNE
Meteor 2-1 Rocket 4.2 05:38:36 10° SSW 05:44:13 82° W 05:49:48 10° N
STARLINK 1044 4.1 05:41:25 11° W 05:44:54 38° NNW 05:48:31 10° ENE
STARLINK 1046 3.6 05:41:50 10° WSW 05:45:58 83° NNW 05:50:08 10° ENE
Nadezhda 3 Rocket 4.1 05:40:46 10° SSW 05:46:46 55° WNW 05:52:53 10° N
Cosmos 1408 3.2 05:44:57 10° N 05:48:39 61° E 05:52:18 10° SSE
Cosmos 1437 4.0 05:47:17 10° NW 05:49:35 20° W 05:51:52 10° SW
Cosmos 1331 Rocket 4.5 05:44:57 10° NNW 05:50:16 67° ENE 05:55:31 10° SSE
IRS-1C Rocket 4.1 05:45:29 10° NNE 05:50:47 79° WNW 05:56:03 10° SSW
STARLINK-75 4.5 05:47:28 10° WNW 05:50:54 32° N 05:54:19 10° ENE
STARLINK 1039 3.6 05:46:47 10° WSW 05:50:56 78° NNW 05:55:06 10° ENE
STARLINK 1031 4.1 05:47:36 10° W 05:51:07 36° NNW 05:54:39 10° ENE
BREEZE-M DEB (TANK) 4.2 05:48:14 10° WNW 05:52:50 76° N 06:11:23 10° E
NOAA 12 4.2 05:47:34 10° NNE 05:52:54 85° ESE 05:58:13 10° SSW
Cosmos 1844 Rocket 3.2 05:47:40 10° NW 05:52:56 41° WSW 05:58:12 10° S
Cosmos 1605 Rocket 4.3 05:46:33 10° N 05:52:59 77° E 05:59:17 10° SSE
STARLINK 1024 4.2 05:51:05 10° W 05:54:35 36° NNW 05:58:06 10° ENE
STARLINK-41 4.5 05:52:22 10° WNW 05:55:46 32° N 05:59:11 10° ENE
STARLINK 1045 3.6 05:51:47 10° WSW 05:55:56 74° NNW 06:00:05 10° ENE
Cosmos 2151 3.0 05:52:37 10° N 05:56:57 87° W 06:01:15 10° S
STARLINK 1029 4.1 05:54:34 10° WNW 05:57:21 28° N 06:00:08 10° NE
STARLINK 4.5 05:56:21 10° WNW 05:59:44 32° N 06:03:08 10° ENE
STARLINK 1050 3.6 05:56:55 10° WSW 06:01:03 68° NNW 06:05:11 10° ENE
ATLAS 3B R/B 4.2 05:58:16 10° WNW 06:02:04 16° WSW 06:05:55 10° SW
